• In Deutschland
  • Länderverzeichnis
  • Für 7 Tage
  • Wassertemperatur
  • Satellitenkarten
  • Wetterkarte
  • Widgets
  • user-avatar
    Anmelden

    Stündliche Wetter Jaú

    Heute, 26 Juli, Mittwoch

    Zeit Temperatur Niederschläge Wind Luftdruck Luftfeuchtigkeit
    00:00 +37°C° 0 mm 1 m/S 746 mmHg 31%
    01:00 +38°C° 0 mm 2 m/S 746 mmHg 30%
    02:00 +38°C° 0 mm 3 m/S 746 mmHg 28%
    03:00 +39°C° 0 mm 3 m/S 746 mmHg 27%
    04:00 +40°C° 0 mm 4 m/S 746 mmHg 31%
    05:00 +40°C° 0 mm 4 m/S 746 mmHg 35%
    06:00 +40°C° 0 mm 4 m/S 746 mmHg 39%
    07:00 +42°C° 0 mm 5 m/S 746 mmHg 35%
    08:00 +43°C° 0 mm 5 m/S 747 mmHg 31%
    09:00 +46°C° 0 mm 5 m/S 747 mmHg 29%
    10:00 +47°C° 0 mm 6 m/S 747 mmHg 26%
    11:00 +48°C° 0 mm 6 m/S 747 mmHg 23%
    12:00 +49°C° 0 mm 6 m/S 747 mmHg 20%
    13:00 +50°C° 0 mm 7 m/S 747 mmHg 19%
    14:00 +50°C° 0 mm 7 m/S 747 mmHg 18%
    15:00 +50°C° 0 mm 7 m/S 746 mmHg 17%
    16:00 +49°C° 0 mm 7 m/S 746 mmHg 20%
    17:00 +46°C° 0 mm 6 m/S 746 mmHg 22%
    18:00 +45°C° 0 mm 6 m/S 746 mmHg 25%
    19:00 +43°C° 0 mm 5 m/S 746 mmHg 29%
    20:00 +42°C° 0 mm 4 m/S 747 mmHg 33%
    21:00 +39°C° 0 mm 3 m/S 747 mmHg 37%
    22:00 +39°C° 0 mm 2 m/S 747 mmHg 40%
    23:00 +38°C° 0 mm 2 m/S 747 mmHg 42%

    Morgen, 27 Juli, Donnerstag

    Zeit Temperatur Niederschläge Wind Luftdruck Luftfeuchtigkeit
    00:00 +37°C° 0 mm 2 m/S 747 mmHg 45%
    01:00 +37°C° 0 mm 2 m/S 746 mmHg 46%
    02:00 +36°C° 0 mm 2 m/S 746 mmHg 47%
    03:00 +36°C° 0 mm 2 m/S 746 mmHg 48%
    04:00 +36°C° 0 mm 2 m/S 747 mmHg 47%
    05:00 +37°C° 0 mm 2 m/S 747 mmHg 45%
    06:00 +38°C° 0 mm 3 m/S 747 mmHg 43%
    07:00 +39°C° 0 mm 3 m/S 748 mmHg 39%
    08:00 +42°C° 0 mm 3 m/S 748 mmHg 35%
    09:00 +44°C° 0 mm 3 m/S 748 mmHg 30%
    10:00 +45°C° 0 mm 3 m/S 748 mmHg 25%
    11:00 +47°C° 0 mm 4 m/S 748 mmHg 21%
    12:00 +49°C° 0 mm 4 m/S 748 mmHg 16%
    13:00 +48°C° 0 mm 5 m/S 748 mmHg 16%
    14:00 +48°C° 0 mm 5 m/S 747 mmHg 16%
    15:00 +48°C° 0 mm 6 m/S 747 mmHg 16%
    16:00 +47°C° 0 mm 6 m/S 747 mmHg 20%
    17:00 +45°C° 0 mm 5 m/S 747 mmHg 23%
    18:00 +43°C° 0 mm 5 m/S 747 mmHg 27%
    19:00 +41°C° 0 mm 4 m/S 747 mmHg 31%
    20:00 +40°C° 0 mm 4 m/S 747 mmHg 36%
    21:00 +38°C° 0 mm 3 m/S 747 mmHg 40%
    22:00 +37°C° 0 mm 2 m/S 747 mmHg 41%
    23:00 +37°C° 0 mm 2 m/S 747 mmHg 41%

    übermorgen, 28 Juli, Freitag

    Zeit Temperatur Niederschläge Wind Luftdruck Luftfeuchtigkeit
    00:00 +36°C° 0 mm 2 m/S 747 mmHg 41%
    01:00 +36°C° 0 mm 2 m/S 747 mmHg 42%
    02:00 +34°C° 0 mm 1 m/S 747 mmHg 42%
    03:00 +33°C° 0 mm 1 m/S 747 mmHg 43%
    04:00 +33°C° 0 mm 1 m/S 747 mmHg 42%
    05:00 +32°C° 0 mm 0 m/S 748 mmHg 40%
    06:00 +32°C° 0 mm 0 m/S 748 mmHg 38%
    07:00 +34°C° 0 mm 0 m/S 749 mmHg 34%
    08:00 +39°C° 0 mm 1 m/S 749 mmHg 30%
    09:00 +40°C° 0 mm 1 m/S 749 mmHg 26%
    10:00 +41°C° 0 mm 1 m/S 749 mmHg 23%
    11:00 +43°C° 0 mm 2 m/S 749 mmHg 21%
    12:00 +45°C° 0 mm 2 m/S 749 mmHg 18%
    13:00 +45°C° 0 mm 3 m/S 748 mmHg 18%
    14:00 +46°C° 0 mm 3 m/S 748 mmHg 17%
    15:00 +46°C° 0 mm 3 m/S 747 mmHg 16%
    16:00 +45°C° 0 mm 4 m/S 747 mmHg 19%
    17:00 +45°C° 0 mm 5 m/S 747 mmHg 23%
    18:00 +43°C° 0 mm 5 m/S 747 mmHg 27%
    19:00 +42°C° 0 mm 5 m/S 748 mmHg 32%
    20:00 +41°C° 0 mm 5 m/S 748 mmHg 37%
    21:00 +40°C° 0 mm 4 m/S 749 mmHg 42%
    22:00 +40°C° 0 mm 4 m/S 749 mmHg 44%
    23:00 +38°C° 0 mm 3 m/S 749 mmHg 45%

    29 Juli, Samstag

    Zeit Temperatur Niederschläge Wind Luftdruck Luftfeuchtigkeit
    00:00 +38°C° 0 mm 3 m/S 749 mmHg 47%
    01:00 +37°C° 0 mm 3 m/S 748 mmHg 49%
    02:00 +37°C° 0 mm 3 m/S 748 mmHg 52%
    03:00 +37°C° 0 mm 3 m/S 748 mmHg 54%
    04:00 +37°C° 0 mm 2 m/S 748 mmHg 54%
    05:00 +37°C° 0 mm 2 m/S 749 mmHg 53%
    06:00 +36°C° 0 mm 1 m/S 749 mmHg 53%
    07:00 +37°C° 0 mm 1 m/S 750 mmHg 48%
    08:00 +39°C° 0 mm 1 m/S 750 mmHg 44%
    09:00 +41°C° 0 mm 1 m/S 750 mmHg 39%
    10:00 +42°C° 0 mm 2 m/S 750 mmHg 35%
    11:00 +43°C° 0 mm 2 m/S 750 mmHg 31%
    12:00 +45°C° 0 mm 3 m/S 749 mmHg 27%
    13:00 +46°C° 0 mm 3 m/S 749 mmHg 25%
    14:00 +46°C° 0 mm 3 m/S 748 mmHg 24%
    15:00 +47°C° 0 mm 3 m/S 748 mmHg 23%
    16:00 +47°C° 0 mm 4 m/S 748 mmHg 25%
    17:00 +45°C° 0 mm 4 m/S 748 mmHg 27%
    18:00 +44°C° 0 mm 4 m/S 748 mmHg 29%
    19:00 +43°C° 0 mm 3 m/S 748 mmHg 31%
    20:00 +41°C° 0 mm 2 m/S 748 mmHg 33%
    21:00 +40°C° 0 mm 1 m/S 749 mmHg 34%
    22:00 +40°C° 0 mm 1 m/S 748 mmHg 33%
    23:00 +40°C° 0 mm 1 m/S 748 mmHg 33%

    30 Juli, Sonntag

    Zeit Temperatur Niederschläge Wind Luftdruck Luftfeuchtigkeit
    00:00 +39°C° 0 mm 2 m/S 748 mmHg 32%
    01:00 +39°C° 0 mm 1 m/S 748 mmHg 33%
    02:00 +37°C° 0 mm 1 m/S 747 mmHg 34%
    03:00 +36°C° 0 mm 1 m/S 747 mmHg 35%
    04:00 +38°C° 0 mm 2 m/S 747 mmHg 33%
    05:00 +38°C° 0 mm 3 m/S 748 mmHg 32%
    06:00 +39°C° 0 mm 3 m/S 748 mmHg 30%
    07:00 +42°C° 0 mm 3 m/S 748 mmHg 26%
    08:00 +44°C° 0 mm 4 m/S 749 mmHg 21%
    09:00 +47°C° 0 mm 4 m/S 749 mmHg 17%
    10:00 +47°C° 0 mm 3 m/S 748 mmHg 15%
    11:00 +48°C° 0 mm 2 m/S 748 mmHg 13%
    12:00 +49°C° 0 mm 2 m/S 747 mmHg 12%
    13:00 +50°C° 0 mm 2 m/S 747 mmHg 11%
    14:00 +51°C° 0 mm 3 m/S 747 mmHg 11%
    15:00 +51°C° 0 mm 3 m/S 746 mmHg 10%
    16:00 +50°C° 0 mm 3 m/S 746 mmHg 12%
    17:00 +48°C° 0 mm 3 m/S 746 mmHg 14%
    18:00 +46°C° 0 mm 3 m/S 746 mmHg 16%
    19:00 +45°C° 0 mm 3 m/S 747 mmHg 19%
    20:00 +42°C° 0 mm 2 m/S 747 mmHg 21%
    21:00 +41°C° 0 mm 1 m/S 747 mmHg 23%
    22:00 +40°C° 0 mm 2 m/S 747 mmHg 24%
    23:00 +40°C° 0 mm 2 m/S 747 mmHg 25%

    31 Juli, Montag

    Zeit Temperatur Niederschläge Wind Luftdruck Luftfeuchtigkeit
    00:00 +40°C° 0 mm 3 m/S 747 mmHg 26%
    01:00 +39°C° 0 mm 3 m/S 746 mmHg 30%
    02:00 +38°C° 0 mm 3 m/S 746 mmHg 34%
    03:00 +38°C° 0 mm 3 m/S 746 mmHg 37%
    04:00 +38°C° 0 mm 2 m/S 746 mmHg 37%
    05:00 +38°C° 0 mm 2 m/S 747 mmHg 37%
    06:00 +37°C° 0 mm 1 m/S 747 mmHg 37%
    07:00 +40°C° 0 mm 1 m/S 748 mmHg 32%
    08:00 +41°C° 0 mm 1 m/S 748 mmHg 28%
    09:00 +43°C° 0 mm 1 m/S 748 mmHg 23%
    10:00 +44°C° 0 mm 1 m/S 748 mmHg 21%
    11:00 +45°C° 0 mm 1 m/S 747 mmHg 19%
    12:00 +47°C° 0 mm 2 m/S 747 mmHg 17%
    13:00 +47°C° 0 mm 3 m/S 747 mmHg 17%
    14:00 +48°C° 0 mm 3 m/S 746 mmHg 18%
    15:00 +49°C° 0 mm 4 m/S 746 mmHg 18%
    16:00 +48°C° 0 mm 4 m/S 746 mmHg 20%
    17:00 +45°C° 0 mm 4 m/S 746 mmHg 22%
    18:00 +44°C° 0 mm 3 m/S 746 mmHg 24%
    19:00 +43°C° 0 mm 3 m/S 747 mmHg 25%
    20:00 +42°C° 0 mm 2 m/S 747 mmHg 26%
    21:00 +41°C° 0 mm 2 m/S 748 mmHg 27%
    22:00 +40°C° 0 mm 3 m/S 747 mmHg 29%
    23:00 +40°C° 0 mm 3 m/S 747 mmHg 30%
    Mehr zeigen